Location: Wilhelmshaven
(53.5279°N, 8.1063°E)
Time: 21:28:16
(UTC+02:00)

ISS - Pass Details

Date: 12 July 2022
Orbit: 412 x 420 km, 51.6° (Epoch: 19 August)

Event Time Altitude Azimuth Distance (km) Brightness Sun altitude
Rises 04:03:15 0° 278° (W) 2,364 -0.2 -7.8°
Reaches altitude 10° 04:05:26 10° 270° (W) 1,500 -1.3 -7.6°
Maximum altitude 04:08:33 36° 202° (SSW) 681 -3.2 -7.4°
Drops below altitude 10° 04:11:41 10° 134° (SE) 1,500 -1.0 -7.1°
Sets 04:13:52 0° 125° (SE) 2,364 0.1 -6.9°
